Hovedside
METAR-TAF:

METAR-TAF

Lufthavner :

Corvallis, Oregon, USA

breddegrad: 44-30N, lengdegrad: 123-17W, høyde over havet: 75 m

Gjeldene værobservasjon

Denne rapporten ble laget for 28 minutter siden, klokken 09:56 UTC
Flau vind
Temperatur -2°C
Luftfuktighet 93%
Trykk 1021 hPa
Sikt: 16.1 km
Skyfri himmel

METAR: KCVO 190956Z AUTO 00000KT 10SM CLR M02/M03 A3015 RMK AO2 SLP210 T10221028 FZRANO

Tid: 02:24 (10:24 UTC)


TAF: fraværende

Værobservasjoner og værvarsel for over 4000 flyplasser (METAR- og TAF-rapporter).

Tilgjengelige stasjoner er representert av de røde og gule prikkene på kartet.

Hold musepekeren over prikken for å se navnet på stasjonen.

Klikk så for å se værobservasjoner og -varsler.

For å forandre kartet kan du klikke på den grønne knappen med svart kryss for å zoome inn, på den grønne knappen med strek for å zoome ut, eller på de grønne pilene for å se tilstøtende kart.


METAR-TAF: